[[{"header":{"parameterUnit":"m.s-1","parameterCategory":1,"la1":30.2991,"la2":30.254,"lo1":-89.0895,"lo2":-89.0444,"dy":0.0017,"dx":0.0017,"nx":28,"ny":28,"refTime":"2024-02-20T03:00:00:Z","depth":0,"parameterNumber":2,"parameterNumberName":"U-component_of_WINDS"},"data":[0,0,0,0,0,0,0,0,0,0,0,0,0,0,0,0,0,0,0,0,0,0,0,0,0,0,0,0,0,0,0,0,0,0,0,0,0,0,0,0,0,0,0,0,0,0,0,0,0,0,0,0,0,0,0,0,0,0,2.6152,2.6153,0,2.6173,2.6174,2.6174,2.6231,2.6232,2.6234,2.6235,2.6254,2.6253,2.6252,0,0,0,0,0,0,0,0,0,0,0,0,0,2.6161,2.616,2.6152,2.6153,2.6153,2.6173,2.6174,2.6174,2.6231,2.6232,2.6234,2.6235,2.6254,2.6253,2.6252,0,0,0,0,0,0,0,0,0,0,0,0,0,2.6167,2.616,2.6152,2.6184,2.6187,2.6173,2.6174,2.6174,2.6231,2.6232,2.6234,2.6236,2.6254,2.6253,2.6252,2.6209,0,0,2.6249,2.6249,0,0,0,0,0,0,0,0,2.6167,2.6167,2.6179,2.6182,2.6185,2.6202,2.6184,2.6185,2.623,2.6214,2.6235,2.6237,2.6235,2.6235,2.6235,2.621,2.621,2.6249,2.6248,2.6248,2.6248,0,0,0,0,0,0,0,2.6166,2.6166,2.6161,2.6179,2.6183,2.6197,2.62,2.6184,2.6213,2.6215,2.622,2.6221,2.6237,2.6236,2.6236,2.6211,2.6249,2.6248,2.6248,2.6247,2.6152,2.6151,0,0,0,0,0,0,2.6161,2.6165,2.616,2.6161,2.618,2.6195,2.6198,2.6194,2.6214,2.6219,2.622,2.6224,2.6237,2.6237,2.6237,2.6188,2.6248,2.6247,2.6246,2.6154,2.6152,2.615,0,0,0,0,0,0,2.6161,2.616,2.6159,2.6164,2.6165,2.6193,2.6188,2.6194,2.6193,2.6217,2.6222,2.6214,2.6238,2.6238,2.6216,2.6189,2.6247,2.6246,2.6157,2.6154,2.6151,2.6088,0,0,0,0,0,0,2.6161,2.616,2.6143,2.6164,2.6165,2.6137,2.6186,2.6193,2.6191,2.6197,2.6213,2.6217,2.624,2.6217,2.6215,2.6189,2.6245,2.6159,2.6155,2.6152,2.6093,2.6084,2.6076,0,0,0,0,0,2.6161,2.6124,2.6142,2.6141,2.6145,2.6136,2.6136,2.6164,2.6189,2.6173,2.6189,2.6217,2.6193,2.6214,2.6212,2.6185,2.6161,2.6156,2.6152,2.6097,2.6085,2.6076,0,0,0,0,0,0,2.6098,2.6127,2.6148,2.6116,2.6123,2.6145,2.6125,2.6151,2.615,2.6155,2.6189,2.6192,2.6164,2.6173,2.6196,2.6145,2.6182,2.6177,2.614,2.613,2.6121,2.6119,2.6244,0,0,0,0,0,2.6081,2.6072,2.6097,2.6067,2.607,2.6097,2.6094,2.6115,2.6123,2.6126,2.614,2.6147,2.6141,2.6136,2.6132,2.6096,2.61,2.6076,2.6068,2.6061,2.6055,2.6037,2.6027,2.6136,2.6136,2.6136,0,0,2.6044,2.6059,2.6051,2.6055,2.6063,2.6052,2.6099,2.6085,2.6077,2.6124,2.6103,2.6115,2.6124,2.6095,2.6082,2.6101,2.6027,2.6055,2.6049,2.6048,2.6032,2.6021,2.6012,2.6133,2.6133,2.6134,0,0,2.5972,2.5982,2.5958,2.5966,2.5979,2.5998,2.5992,2.6011,2.6021,2.6002,2.6037,2.6028,2.6017,2.6023,2.6025,2.5958,2.5984,2.5956,2.591,2.5892,2.5884,2.5876,2.5852,2.5843,2.5951,2.5951,2.5951,0,2.5924,2.591,2.5943,2.5927,2.5928,2.5972,2.5948,2.5954,2.5964,2.5963,2.5985,2.5973,2.5983,2.5956,2.594,2.594,2.5934,2.5953,2.5883,2.5876,2.5869,2.5846,2.5837,2.5948,2.5948,2.5948,2.5949,0,2.5851,2.584,2.582,2.583,2.5829,2.5809,2.5839,2.5834,2.5856,2.5873,2.5853,2.5867,2.5867,2.5863,2.5883,2.5839,2.585,2.5877,2.5913,2.5855,2.5834,2.5825,2.5942,2.5944,2.5945,2.5946,0,0,2.5735,2.5766,2.5758,2.5764,2.5782,2.5775,2.5758,2.5759,2.5754,2.5761,2.5747,2.5739,2.5764,2.5766,2.5788,2.5773,2.5719,2.5801,2.5802,2.5785,2.5671,2.5649,2.5638,2.5738,2.5736,2.5735,2.567,0,2.5666,2.5639,2.5669,2.5636,2.5627,2.567,2.5656,2.5665,2.5682,2.5677,2.5695,2.5688,2.5722,2.5724,2.5711,2.5728,2.5696,2.5734,2.5724,2.5723,2.5718,2.5628,2.5604,2.5542,2.5662,2.566,2.566,0,2.558,2.5584,2.555,2.5573,2.557,2.5556,2.5561,2.5556,2.5569,2.5582,2.5585,2.5613,2.5599,2.5637,2.5617,2.5642,2.564,2.5649,2.5647,2.5645,2.5686,2.5622,2.5523,2.5512,2.5647,2.5648,2.5649,0,2.5498,2.5495,2.5475,2.5479,2.5505,2.5494,2.5504,2.5519,2.5519,2.5523,2.5523,2.5526,2.5526,2.5528,2.5556,2.5581,2.5533,2.5573,2.5542,2.5541,2.5527,2.5527,2.5425,2.553,2.553,2.553,2.553,0,2.5416,2.5393,2.5438,2.5425,2.5401,2.5438,2.5413,2.5428,2.5441,2.5432,2.5471,2.5461,2.55,2.5494,2.5516,2.5497,2.5497,2.5507,2.5512,2.5502,2.55,2.5499,2.5504,2.5528,2.5528,2.5529,2.5529,0,2.5319,2.5348,2.5329,2.5356,2.5363,2.5344,2.5367,2.5357,2.5377,2.5365,2.5364,2.5396,2.5392,2.5421,2.5422,2.5437,2.5406,2.542,2.5402,2.5405,2.5373,2.5375,2.5264,2.5251,2.5366,2.5365,2.5364,0,2.5263,2.5247,2.5274,2.5271,2.528,2.5274,2.5275,2.5311,2.531,2.5325,2.5312,2.5312,2.5313,2.5305,2.5328,2.533,2.5343,2.5304,2.5343,2.5334,2.5341,2.5341,2.5339,2.5295,2.5294,2.5292,2.5292,0,2.5161,2.5178,2.5177,2.5182,2.5182,2.5188,2.5196,2.5191,2.5231,2.5228,2.5225,2.5227,2.5229,2.5228,2.5235,2.5246,2.5274,2.528,2.5273,2.526,2.525,2.5254,2.5377,2.5281,2.5282,2.5283,2.5284,2.5284,2.5082,2.507,2.5088,2.5086,2.5097,2.5104,2.5096,2.5117,2.5115,2.512,2.5143,2.5136,2.5151,2.5163,2.5172,2.5167,2.5186,2.5175,2.5173,2.5169,2.5162,2.5253,2.5169,2.5169,2.517,2.517,2.517,0,2.4981,2.4996,2.4994,2.5005,2.5005,2.5035,2.5046,2.5043,2.5037,2.505,2.5051,2.5049,2.5049,2.5073,2.5076,2.5068,2.5082,2.5067,2.5067,2.5069,2.5146,2.5151,2.5057,2.5057,2.5057,2.5057,2.5057,2.5057,2.4928,2.491,2.4928,2.4916,2.4931,2.4925,2.4929,2.4936,2.4946,2.4942,2.4943,2.496,2.4977,2.4982,2.4984,2.4991,2.499,2.4971,2.4982,2.5053,2.5064,2.5074,2.5079,2.4971,2.497,2.4905,2.4905,2.4904]},{"header":{"parameterUnit":"m.s-1","parameterCategory":1,"la1":30.2991,"la2":30.254,"lo1":-89.0895,"lo2":-89.0444,"dy":0.0017,"dx":0.0017,"nx":28,"ny":28,"refTime":"2024-02-20T03:00:00:Z","depth":0,"parameterNumber":3,"parameterNumberName":"V-component_of_WINDS"},"data":[0,0,0,0,0,0,0,0,0,0,0,0,0,0,0,0,0,0,0,0,0,0,0,0,0,0,0,0,0,0,0,0,0,0,0,0,0,0,0,0,0,0,0,0,0,0,0,0,0,0,0,0,0,0,0,0,0,0,0.2106,0.2105,0,0.1983,0.1981,0.198,0.1921,0.1921,0.1921,0.1921,0.1793,0.179,0.1786,0,0,0,0,0,0,0,0,0,0,0,0,0,0.2287,0.2284,0.2106,0.2105,0.2103,0.1983,0.1981,0.198,0.1921,0.1921,0.1921,0.1921,0.1794,0.179,0.1786,0,0,0,0,0,0,0,0,0,0,0,0,0,0.2191,0.2283,0.2106,0.2059,0.2054,0.1983,0.1981,0.1979,0.1921,0.1921,0.1921,0.1921,0.1796,0.1791,0.1786,0.1752,0,0,0.177,0.1767,0,0,0,0,0,0,0,0,0.2196,0.2184,0.2068,0.2063,0.2056,0.1967,0.1998,0.1903,0.1921,0.1972,0.1921,0.1922,0.1851,0.1841,0.1818,0.1746,0.174,0.1769,0.1766,0.1764,0.1762,0,0,0,0,0,0,0,0.2203,0.2189,0.2057,0.2066,0.2059,0.2043,0.203,0.198,0.1912,0.1967,0.1963,0.1949,0.1848,0.1823,0.1814,0.1738,0.1769,0.1765,0.1762,0.176,0.1628,0.1628,0,0,0,0,0,0,0.2218,0.2195,0.2061,0.2053,0.2128,0.204,0.2025,0.1996,0.1913,0.19,0.1949,0.1947,0.1832,0.1821,0.181,0.1762,0.1764,0.1759,0.1756,0.1629,0.1628,0.1628,0,0,0,0,0,0,0.2222,0.2206,0.2066,0.2123,0.2104,0.2037,0.2005,0.1993,0.1969,0.1899,0.1886,0.1936,0.1832,0.1817,0.1766,0.1757,0.1757,0.1752,0.1629,0.1629,0.1628,0.1669,0,0,0,0,0,0,0.2227,0.2208,0.2196,0.2123,0.2101,0.2026,0.2004,0.1991,0.196,0.1956,0.1884,0.1872,0.183,0.1774,0.1761,0.175,0.1748,0.163,0.1629,0.1628,0.1668,0.167,0.1671,0,0,0,0,0,0.2234,0.2212,0.2195,0.218,0.2084,0.2025,0.2013,0.1966,0.196,0.1945,0.19,0.1874,0.176,0.1769,0.1754,0.1741,0.163,0.1629,0.1628,0.1667,0.1669,0.1671,0,0,0,0,0,0,0.2286,0.2202,0.2182,0.2137,0.2089,0.2016,0.1997,0.197,0.1923,0.1921,0.1864,0.1848,0.1802,0.1766,0.1778,0.1702,0.1692,0.1689,0.1727,0.1729,0.173,0.1739,0.1744,0,0,0,0,0,0.2292,0.2252,0.2181,0.2147,0.2124,0.2065,0.2037,0.2005,0.1953,0.1932,0.1883,0.1833,0.1785,0.1755,0.1708,0.1662,0.1644,0.1646,0.1648,0.1649,0.1646,0.1617,0.1616,0.1625,0.1625,0.1625,0,0,0.2304,0.2253,0.2232,0.2156,0.2115,0.2073,0.2048,0.2006,0.1974,0.1925,0.1874,0.1836,0.1775,0.1727,0.1702,0.1696,0.164,0.1648,0.165,0.1646,0.1616,0.1615,0.1615,0.1625,0.1625,0.1625,0,0,0.2304,0.2263,0.2229,0.2188,0.2126,0.2087,0.2079,0.2009,0.1982,0.1929,0.1891,0.1852,0.1772,0.173,0.1698,0.168,0.1653,0.1666,0.1674,0.1646,0.1646,0.1645,0.1636,0.1634,0.1663,0.1663,0.1663,0,0.2327,0.2264,0.2215,0.2174,0.2141,0.2096,0.206,0.2022,0.1948,0.1925,0.1919,0.1816,0.1772,0.1711,0.1707,0.1683,0.167,0.1674,0.165,0.1648,0.1647,0.1638,0.1635,0.1665,0.1665,0.1665,0.1665,0,0.2294,0.2251,0.2231,0.216,0.2124,0.2087,0.203,0.2,0.1971,0.1931,0.1877,0.1822,0.1762,0.1745,0.1717,0.1679,0.1677,0.1661,0.1649,0.1648,0.1639,0.1635,0.1668,0.1667,0.1667,0.1666,0,0,0.2325,0.2226,0.2219,0.2185,0.2112,0.2077,0.2036,0.1977,0.1951,0.1901,0.1863,0.1796,0.178,0.1744,0.1709,0.1685,0.1671,0.1671,0.1669,0.1672,0.1624,0.1636,0.1633,0.1653,0.1652,0.1652,0.1628,0,0.2314,0.2239,0.2193,0.2136,0.2094,0.2049,0.2012,0.1963,0.1924,0.1881,0.1838,0.179,0.1774,0.1751,0.1725,0.1679,0.1661,0.168,0.1616,0.1614,0.1632,0.1628,0.1641,0.1622,0.1625,0.1624,0.1624,0,0.2292,0.2242,0.2181,0.211,0.2091,0.2059,0.2,0.1961,0.1903,0.1876,0.1834,0.1799,0.1752,0.1745,0.1678,0.1692,0.1663,0.1635,0.1633,0.1625,0.1618,0.1618,0.1615,0.1611,0.1618,0.1618,0.1619,0,0.2318,0.2236,0.2188,0.216,0.2078,0.2056,0.202,0.1962,0.1929,0.1877,0.1854,0.1797,0.1766,0.1722,0.1671,0.1671,0.1608,0.1598,0.1583,0.1584,0.1571,0.1573,0.1562,0.1555,0.1555,0.1555,0.1555,0,0.231,0.2274,0.2198,0.2169,0.2126,0.2072,0.2031,0.1992,0.194,0.19,0.1858,0.1822,0.1758,0.1713,0.1674,0.1622,0.1609,0.1585,0.1574,0.1588,0.1591,0.1567,0.1567,0.1554,0.1555,0.1555,0.1555,0,0.2332,0.228,0.2225,0.215,0.213,0.2102,0.2037,0.2006,0.1965,0.1915,0.19,0.1835,0.1779,0.1725,0.1651,0.1624,0.1573,0.156,0.1593,0.1587,0.1575,0.1576,0.1548,0.154,0.154,0.154,0.154,0,0.2331,0.2301,0.2223,0.2194,0.2159,0.2113,0.2078,0.2023,0.1989,0.1919,0.1895,0.1837,0.1787,0.1701,0.1646,0.1588,0.1573,0.1566,0.1564,0.1577,0.157,0.1572,0.1568,0.1568,0.1568,0.1568,0.1569,0,0.2332,0.2307,0.2259,0.2202,0.2162,0.2114,0.2064,0.2042,0.1977,0.194,0.1883,0.1845,0.1768,0.171,0.1646,0.1607,0.1576,0.157,0.1563,0.1576,0.1595,0.1583,0.1595,0.1571,0.1571,0.157,0.157,0.157,0.234,0.2312,0.2252,0.2199,0.2156,0.211,0.2076,0.203,0.1981,0.1915,0.1885,0.1827,0.1767,0.1677,0.1639,0.1591,0.1584,0.1575,0.1572,0.157,0.1572,0.1604,0.158,0.158,0.1579,0.1579,0.1579,0,0.2338,0.2297,0.2249,0.2181,0.2139,0.2114,0.2057,0.2023,0.1973,0.1919,0.1871,0.1804,0.1747,0.1686,0.1625,0.1599,0.1583,0.1584,0.1585,0.1576,0.1584,0.1595,0.1598,0.1598,0.1598,0.1598,0.1598,0.1598,0.2332,0.2281,0.2249,0.2175,0.2133,0.2077,0.2046,0.2002,0.1959,0.1887,0.1839,0.18,0.1743,0.1677,0.1622,0.1606,0.1584,0.1589,0.1569,0.1577,0.1576,0.1575,0.1585,0.1586,0.1586,0.1565,0.1565,0.1564]}]]